"TOA5","AWS1","CR1000","7964","CR1000.Std.14","CPU:AWS1_114.CR1","64363","TBL110"
"TIMESTAMP","RECORD","Wind_spd_WVc(1)","Wind_spd_WVc(2)","Air_Temp_Avg","Humidity_Avg","SW_upper_Wm2_Avg","Rain_Tot","Press_Avg","Issui_Tot","Depth_cm","SR50A_Raw","Quality","Ground_Temp_Avg(1)","Ground_Temp_Avg(2)","SW_lower_Wm2_Avg","Albedo_Avg","SWC_per(1)","SWC_per(2)","Period(1)","Period(2)"
"TS","RN","","","","","","","","","","","","","","","","","","",""
"","","WVc","WVc","Avg","Avg","Avg","Tot","Avg","Tot","Smp","Smp","Smp","Avg","Avg","Avg","Avg","Smp","Smp","Smp","Smp"
"2018-04-30 00:00:00",338461,0.21,184,6.708,64.43,0,0,868.7689,0,-2.545,3.166,229,10.86,9.77,0,0,50.61,58.26,33.45,35.28
"2018-04-30 00:10:00",338462,0.275,179.3,6.777,63.67,0,0,868.9022,0,-0.84,3.146,241,10.84,9.77,0.1213068,0,50.61,58.21,33.45,35.26
"2018-04-30 00:20:00",338463,0.245,304.7,8.29,56.05,0,0,869.015,0,-2.953,3.161,201,10.8,9.77,1.387446,0,50.61,58.21,33.45,35.26
"2018-04-30 00:30:00",338464,0.158,200.9,8.13,57.78,0,0,868.9669,0,-2.925,3.17,220,10.73,9.77,0.5041813,0,50.61,58.21,33.45,35.26
"2018-04-30 00:40:00",338465,0.077,180.5,6.962,62.45,0,0,868.7689,0,-2.745,3.167,212,10.7,9.77,0.04549004,0,50.55,58.21,33.43,35.26
"2018-04-30 00:50:00",338466,0.199,316.1,7.948,54.26,0,0,868.7331,0,-3.607,3.165,203,10.66,9.77,1.027317,0,50.61,58.21,33.45,35.26
"2018-04-30 01:00:00",338467,0.136,293.5,8.76,49.48,0,0,868.5434,0,-4.185,3.179,197,10.64,9.77,1.095552,0,50.61,58.21,33.45,35.26
"2018-04-30 01:10:00",338468,0.42,177.5,6.202,63.22,0,0,868.5098,0,-2.96,3.176,192,10.55,9.78,0,0,50.61,58.21,33.45,35.26
"2018-04-30 01:20:00",338469,0.194,195.5,6.117,62.07,0,0,868.5098,0,-3.332,3.175,198,10.53,9.8,0.08718923,0,50.61,58.21,33.45,35.26
"2018-04-30 01:30:00",338470,0.321,193.7,6.285,60.51,0,0,868.3496,0,-2.853,3.171,197,10.48,9.83,0.1440518,0,50.61,58.21,33.45,35.26
"2018-04-30 01:40:00",338471,0.278,209.2,6.572,58.66,0,0,868.259,0,-2.706,3.171,186,10.46,9.8,0.3260119,0,50.61,58.21,33.45,35.26
"2018-04-30 01:50:00",338472,0.192,178.3,6.187,60.61,0,0,868.4486,0,-2.892,3.177,193,10.43,9.76,0.08340029,0,50.61,58.21,33.45,35.26
"2018-04-30 02:00:00",338473,0.145,202,5.718,62.24,0,0,868.2927,0,-3.473,3.181,195,10.39,9.72,0.07961082,0,50.61,58.21,33.45,35.26
"2018-04-30 02:10:00",338474,0.268,176.5,5.354,64.16,0,0,868.2695,0,-2.91,3.179,195,10.35,9.71,0.01895583,0,50.61,58.15,33.45,35.25
"2018-04-30 02:20:00",338475,0.331,201.5,5.696,61.12,0,0,868.063,0,-3.092,3.177,194,10.34,9.73,0.4208553,0,50.61,58.15,33.45,35.25
"2018-04-30 02:30:00",338476,0.247,194,6.248,55.76,0,0,868.2484,0,-3.354,3.181,190,10.31,9.74,0.7735032,0,50.61,58.15,33.45,35.25
"2018-04-30 02:40:00",338477,0.348,175.4,5.574,59.66,0,0,868.1283,0,-2.582,3.175,194,10.27,9.76,0,0,50.61,58.21,33.45,35.26
"2018-04-30 02:50:00",338478,0.124,244.6,6.169,52,0,0,868.004,0,-2.946,3.168,193,10.3,9.77,0.7204923,0,50.61,58.15,33.45,35.25
"2018-04-30 03:00:00",338479,0.292,190.4,6.343,50.1,0,0,868.004,0,-2.913,3.177,188,10.25,9.79,0.5498533,0,50.61,58.21,33.45,35.26
"2018-04-30 03:10:00",338480,0.21,198.8,5.84,48.51,0,0,868.0125,0,-3.291,3.181,188,10.21,9.82,0.2047743,0,50.55,58.15,33.43,35.25
"2018-04-30 03:20:00",338481,0.189,192.1,5.373,51.65,0,0,868.0314,0,-2.967,3.181,171,10.11,9.85,0,0,50.61,58.21,33.45,35.26
"2018-04-30 03:30:00",338482,0.372,189.2,4.861,52.93,0,0,868.0293,0,-2.868,3.181,176,10.16,9.85,0,0,50.61,58.21,33.45,35.26
"2018-04-30 03:40:00",338483,0.442,186.1,4.94,52.01,0,0,868.0082,0,-3.069,3.182,186,10.08,9.79,0.0189606,0,50.55,58.15,33.43,35.25
"2018-04-30 03:50:00",338484,0.248,242.2,5.559,49.48,0,0,868.0054,0,-3.208,3.174,188,10.06,9.74,0.7887628,0,50.55,58.21,33.43,35.26
"2018-04-30 04:00:00",338485,0.217,185.1,5.695,51.06,0,0,868.0086,0,-2.943,3.18,193,9.98,9.71,0.2464884,0,50.61,58.15,33.45,35.25
"2018-04-30 04:10:00",338486,0.19,188.7,5.351,50.21,0,0,868.0311,0,-3.647,3.185,180,9.96,9.69,0.174438,0,50.61,58.15,33.45,35.25
"2018-04-30 04:20:00",338487,0.262,166.5,4.809,53.43,0,0,868.0644,0,-2.415,3.177,179,9.98,9.69,0,0,50.61,58.09,33.45,35.24
"2018-04-30 04:30:00",338488,0.359,133,4.925,50.6,0,0,868.0272,0,-3.593,3.182,193,9.87,9.69,0.2426963,0,50.61,58.15,33.45,35.25
"2018-04-30 04:40:00",338489,0.151,61.29,6.285,41.62,0,0,868.0291,0,-2.952,3.17,192,9.9,9.71,1.312077,0,50.61,58.15,33.45,35.25
"2018-04-30 04:50:00",338490,0.101,351.7,6.413,41.54,0,0,868.0382,0,-4.018,3.182,188,9.78,9.72,0.6294936,0,50.61,58.15,33.45,35.25
"2018-04-30 05:00:00",338491,0.169,224.5,6.577,41.46,2.654754,0,868.0459,0,-2.661,3.174,189,9.8,9.75,1.592695,0.473,50.61,58.09,33.45,35.24
"2018-04-30 05:10:00",338492,0.029,281,6.572,40.53,5.714604,0,868.2004,0,-3.634,3.176,170,9.74,9.76,2.032582,0.362,50.61,58.15,33.45,35.25
"2018-04-30 05:20:00",338493,0.195,235.5,6.873,40.57,7.905268,0,868.2832,0,-2.805,3.171,193,9.69,9.74,2.074295,0.267,50.61,58.15,33.45,35.25
"2018-04-30 05:30:00",338494,0.143,105.1,6.31,42.96,14.17835,0,868.3069,0,-3.062,3.176,193,9.67,9.69,2.301823,0.165,50.61,58.15,33.45,35.25
"2018-04-30 05:40:00",338495,0.463,107.8,6.475,42.45,19.81036,0,868.4985,0,-3.206,3.173,184,9.6,9.67,3.36362,0.169,50.66,58.15,33.46,35.25
"2018-04-30 05:50:00",338496,0.292,148,6.465,43.47,25.29685,0,868.3879,0,-2.651,3.168,193,9.6,9.63,3.807299,0.15,50.61,58.15,33.45,35.25
"2018-04-30 06:00:00",338497,0.208,121.3,6.872,41.35,61.24419,0,868.4407,0,-3.13,3.172,193,9.63,9.6,9.688892,0.159,50.66,58.15,33.46,35.25
"2018-04-30 06:10:00",338498,0.157,79.16,7.411,38.76,117.2575,0,868.3488,0,-2.734,3.161,194,9.55,9.6,21.45208,0.181,50.61,58.15,33.45,35.25
"2018-04-30 06:20:00",338499,0.219,107.7,8.39,40.03,186.7728,0,868.2635,0,-2.701,3.158,193,9.49,9.58,28.6723,0.161,50.66,58.15,33.46,35.25
"2018-04-30 06:30:00",338500,0.155,83.4,8.63,38.06,118.9053,0,868.3094,0,-3.362,3.165,194,9.47,9.58,18.31976,0.154,50.61,58.15,33.45,35.25
"2018-04-30 06:40:00",338501,0.307,132.6,8.33,41.36,144.6624,0,868.2595,0,-3.334,3.164,194,9.46,9.57,22.14043,0.153,50.66,58.15,33.46,35.25
"2018-04-30 06:50:00",338502,0.073,49.3,8.95,38.39,152.4199,0,868.4319,0,-3.433,3.161,174,9.45,9.54,24.68129,0.162,50.66,58.15,33.46,35.25
"2018-04-30 07:00:00",338503,0.122,337,9.17,35.06,129.71,0,868.4916,0,-3.05,3.159,170,9.4,9.52,19.05357,0.147,50.61,58.09,33.45,35.24
"2018-04-30 07:10:00",338504,0.144,82.7,9.07,35.32,127.3826,0,868.4931,0,-2.992,3.157,187,9.34,9.47,18.73458,0.147,50.66,58.15,33.46,35.25
"2018-04-30 07:20:00",338505,0.363,143.3,9.45,36.45,181.5318,0,868.4616,0,-3.213,3.157,174,9.29,9.44,32.4497,0.177,50.61,58.09,33.45,35.24
"2018-04-30 07:30:00",338506,0.41,139.6,9.91,33.22,208.5849,0,868.4904,0,-3.104,3.154,177,9.3,9.47,34.87575,0.167,50.66,58.09,33.46,35.24
"2018-04-30 07:40:00",338507,0.328,118.6,10.02,33.07,193.9041,0,868.4721,0,-2.49,3.147,188,9.29,9.46,31.87338,0.164,50.66,58.09,33.46,35.24
"2018-04-30 07:50:00",338508,0.305,71.54,10.38,34.84,253.9518,0,868.644,0,-2.511,3.146,178,9.28,9.43,33.45415,0.135,50.61,58.15,33.45,35.25
"2018-04-30 08:00:00",338509,0.23,42.26,10.41,34.69,314.4044,0,868.5295,0,-2.476,3.144,192,9.28,9.43,39.70143,0.127,50.61,58.09,33.45,35.24
"2018-04-30 08:10:00",338510,0.375,339.6,10.49,34.23,390.9721,0,868.4514,0,-2.584,3.146,190,9.27,9.41,52.47275,0.134,50.66,58.09,33.46,35.24
"2018-04-30 08:20:00",338511,0.337,319.5,10.58,35.81,369.5694,0,868.582,0,-2.486,3.144,177,9.23,9.38,52.50275,0.142,50.66,58.09,33.46,35.24
"2018-04-30 08:30:00",338512,0.476,337.5,10.95,34.15,563.6663,0,868.4177,0,-2.336,3.139,192,9.21,9.35,82.47913,0.146,50.61,58.09,33.45,35.24
"2018-04-30 08:40:00",338513,0.395,324.2,11.56,33.43,461.5754,0,868.4177,0,-2.835,3.142,183,9.2,9.33,73.93501,0.16,50.66,58.09,33.46,35.24
"2018-04-30 08:50:00",338514,0.29,312.1,12.05,32.04,396.5832,0,868.3482,0,-3.122,3.141,186,9.16,9.34,66.92362,0.168,50.61,58.09,33.45,35.24
"2018-04-30 09:00:00",338515,0.487,326.1,12.55,30.6,763.6357,0,868.4177,0,-3.312,3.14,191,9.14,9.3,98.2516,0.129,50.61,58.09,33.45,35.24
"2018-04-30 09:10:00",338516,0.593,19.2,13.1,31.95,890.096,0,868.4177,0,-4,3.146,196,9.14,9.29,114.0198,0.128,50.61,58.09,33.45,35.24
"2018-04-30 09:20:00",338517,0.643,354.9,12.46,35.5,877.4052,0,868.4117,0,-3.321,3.142,197,9.17,9.29,112.2349,0.128,50.61,58.09,33.45,35.24
"2018-04-30 09:30:00",338518,0.594,344.5,13.07,37.8,931.702,0,868.382,0,-2.528,3.125,193,9.2,9.29,121.2616,0.13,50.61,58.03,33.45,35.22
"2018-04-30 09:40:00",338519,0.483,347.4,14.4,30.44,955.8615,0,868.1501,0,-3.658,3.132,187,9.24,9.28,126.0478,0.132,50.61,58.09,33.45,35.24
"2018-04-30 09:50:00",338520,0.587,354.2,14.92,29.07,947.9216,0,868.0557,0,-4.562,3.142,193,9.23,9.19,119.1346,0.126,50.61,58.09,33.45,35.24
"2018-04-30 10:00:00",338521,0.64,356.5,14.78,28.75,979.3925,0,867.902,0,-3.121,3.128,193,9.21,9.17,125.4196,0.128,50.61,58.03,33.45,35.22
"2018-04-30 10:10:00",338522,0.45,337,15,29.5,948.9226,0,867.8565,0,-2.965,3.126,200,9.19,9.18,125.7814,0.133,50.61,58.03,33.45,35.22
"2018-04-30 10:20:00",338523,0.68,283.3,14.97,29.19,949.1219,0,867.8542,0,-2.436,3.118,192,9.17,9.13,132.9037,0.14,50.61,58.09,33.45,35.24
"2018-04-30 10:30:00",338524,0.667,317.8,15.63,26.43,1038.671,0,867.6826,0,-2.63,3.118,209,9.19,9.11,150.0797,0.144,50.61,58.09,33.45,35.24
"2018-04-30 10:40:00",338525,0.687,344.7,15.95,25.77,1021.156,0,867.6716,0,-3.583,3.124,193,9.22,9.07,151.3717,0.148,50.61,58.03,33.45,35.22
"2018-04-30 10:50:00",338526,0.641,299,16.28,24.8,1014.488,0,867.6326,0,-3.978,3.129,190,9.27,9.07,154.1339,0.152,50.61,58.09,33.45,35.24
"2018-04-30 11:00:00",338527,0.668,300.5,15.96,24.29,850.2359,0,867.6159,0,-3.252,3.125,185,9.38,9.07,129.859,0.153,50.61,58.09,33.45,35.24
"2018-04-30 11:10:00",338528,0.455,335.2,16.34,24.35,916.7842,0,867.623,0,-3.474,3.122,182,9.45,8.99,145.5466,0.159,50.55,58.09,33.43,35.24
"2018-04-30 11:20:00",338529,0.685,122.4,16.89,23.38,1006.62,0,867.5572,0,-2.808,3.109,184,9.48,8.99,162.5814,0.161,50.55,58.03,33.43,35.22
"2018-04-30 11:30:00",338530,0.63,344.8,17.22,22.23,1049.08,0,867.57,0,-3.903,3.121,198,9.59,8.99,170.6577,0.163,50.61,58.03,33.45,35.22
"2018-04-30 11:40:00",338531,0.621,94.6,16.96,22.69,694.0287,0,867.5823,0,-1.601,3.101,217,9.66,8.95,107.4827,0.153,50.55,58.03,33.43,35.22
"2018-04-30 11:50:00",338532,0.534,113.3,16.62,21.93,557.8526,0,867.4404,0,-3.616,3.125,195,9.78,8.94,84.73792,0.151,50.55,58.03,33.43,35.22
"2018-04-30 12:00:00",338533,0.665,62.7,16.5,22.13,709.6795,0,867.6099,0,-2.268,3.107,197,9.82,8.98,115.6947,0.162,50.61,58.03,33.45,35.22
"2018-04-30 12:10:00",338534,0.433,186.1,17.27,21.04,695.6563,0,867.6251,0,-2.521,3.109,201,9.9,8.93,111.8483,0.16,50.61,58.09,33.45,35.24
"2018-04-30 12:20:00",338535,0.472,25.88,16.87,21.26,502.0229,0,867.6344,0,-3.367,3.12,182,10,8.96,75.77566,0.151,50.55,58.03,33.43,35.22
"2018-04-30 12:30:00",338536,0.763,143.7,16.46,19.91,692.5277,0,867.5296,0,-2.46,3.114,189,10.1,8.98,111.1283,0.16,50.55,58.09,33.43,35.24
"2018-04-30 12:40:00",338537,0.891,106.8,16.17,20.31,567.3718,0,867.5933,0,-2.721,3.117,198,10.15,8.99,90.15697,0.158,50.55,58.03,33.43,35.22
"2018-04-30 12:50:00",338538,0.976,101,16.52,19.14,708.127,0,867.5849,0,-3.586,3.124,190,10.23,8.99,116.3237,0.164,50.55,58.03,33.43,35.22
"2018-04-30 13:00:00",338539,0.666,101.2,16.48,18.48,677.1525,0,867.6279,0,-3.167,3.119,198,10.32,8.98,110.2529,0.161,50.55,58.03,33.43,35.22
"2018-04-30 13:10:00",338540,1.137,69.64,16.07,20.45,357.1331,0,867.5932,0,-3.006,3.124,198,10.42,8.99,53.5879,0.15,50.55,58.03,33.43,35.22
"2018-04-30 13:20:00",338541,0.339,81.4,15.44,22.67,332.7024,0,867.4054,0,-3.72,3.13,217,10.48,8.98,49.87415,0.15,50.5,58.03,33.42,35.22
"2018-04-30 13:30:00",338542,0.231,242.3,15.34,26.07,291.3008,0,867.4018,0,-3.313,3.127,192,10.56,8.97,42.28749,0.145,50.5,58.03,33.42,35.22
"2018-04-30 13:40:00",338543,0.142,304.5,15.29,27.21,336.6759,0,867.3988,0,-2.28,3.116,204,10.58,8.98,50.04847,0.149,50.5,58.03,33.42,35.22
"2018-04-30 13:50:00",338544,0.327,282.7,15.09,27.64,338.3777,0,867.3994,0,-2.813,3.124,184,10.63,8.99,49.77562,0.147,50.44,57.97,33.41,35.21
"2018-04-30 14:00:00",338545,0.326,318.3,14.92,29.19,291.8314,0,867.3893,0,-3.64,3.133,187,10.72,8.99,42.06012,0.144,50.44,58.03,33.41,35.22
"2018-04-30 14:10:00",338546,0.24,344.9,14.64,30.44,209.6413,0,867.4003,0,-2.776,3.126,180,10.75,8.99,28.68304,0.137,50.44,58.03,33.41,35.22
"2018-04-30 14:20:00",338547,0.23,283.3,14.18,33.7,203.2703,0,867.4061,0,-2.793,3.129,197,10.82,8.99,27.79249,0.137,50.44,58.03,33.41,35.22
"2018-04-30 14:30:00",338548,0.137,137,14.1,33.96,232.7671,0,867.4044,0,-2.685,3.127,192,10.9,9,33.17743,0.142,50.44,58.03,33.41,35.22
"2018-04-30 14:40:00",338549,0.191,314.5,13.83,35.5,167.2493,0,867.3708,0,-2.882,3.132,196,10.89,9.03,22.05892,0.132,50.39,58.03,33.39,35.22
"2018-04-30 14:50:00",338550,0.192,254.2,13.69,38.32,148.6197,0,867.3897,0,-3.213,3.135,192,10.95,9.07,19.66393,0.132,50.44,58.03,33.41,35.22
"2018-04-30 15:00:00",338551,0.199,26.9,13.41,38.58,112.4611,0,867.4066,0,-3.049,3.136,197,10.94,9.08,13.88867,0.124,50.44,58.03,33.41,35.22
"2018-04-30 15:10:00",338552,0.088,360,13.24,40.06,108.8728,0,867.4023,0,-3.151,3.137,190,10.91,9.08,13.89246,0.128,50.39,58.03,33.39,35.22
"2018-04-30 15:20:00",338553,0.302,5.017,13.08,38.96,104.3451,0,867.6361,0,-3.312,3.14,177,11.03,9.08,13.74846,0.132,50.39,58.03,33.39,35.22
"2018-04-30 15:30:00",338554,0.31,96.1,13.06,38.21,125.3407,0,867.5498,0,-3.39,3.141,189,11.07,9.07,17.53042,0.14,50.39,58.03,33.39,35.22
"2018-04-30 15:40:00",338555,0.463,143.5,12.81,36,165.6339,0,867.3918,0,-3.38,3.139,194,11.06,9.05,24.79118,0.15,50.39,57.97,33.39,35.21
"2018-04-30 15:50:00",338556,0.035,230.7,13.35,39.98,210.333,0,867.6025,0,-3.238,3.135,194,11.08,9.09,32.23005,0.153,50.39,57.97,33.39,35.21
"2018-04-30 16:00:00",338557,0.245,252.4,13.52,37.33,167.7641,0,867.5456,0,-3.399,3.138,195,11.09,9.2,24.43875,0.143,50.33,57.97,33.38,35.21
"2018-04-30 16:10:00",338558,0.378,126.9,13,37.01,100.7803,0,867.4403,0,-3.234,3.139,180,11.1,9.19,13.29371,0.132,50.33,57.97,33.38,35.21
"2018-04-30 16:20:00",338559,0.234,58.54,12.79,37.79,83.42812,0,867.5814,0,-3.214,3.14,172,11.13,9.19,10.94419,0.131,50.33,57.97,33.38,35.21
"2018-04-30 16:30:00",338560,0.281,108.8,12.58,37.61,67.18427,0,867.4297,0,-3.039,3.139,194,11.17,9.18,8.704576,0.129,50.39,57.97,33.39,35.21
"2018-04-30 16:40:00",338561,0.04,137.3,12.54,36.06,64.92435,0,867.4066,0,-3.142,3.14,185,11.19,9.17,8.742471,0.133,50.33,57.97,33.38,35.21
"2018-04-30 16:50:00",338562,0.219,124.1,12.62,35.98,85.40898,0,867.2718,0,-3.01,3.138,194,11.2,9.17,12.44864,0.145,50.33,57.97,33.38,35.21
"2018-04-30 17:00:00",338563,0.507,170,12.65,36.68,122.5423,0,867.2908,0,-3.293,3.141,176,11.19,9.25,18.86054,0.153,50.33,57.97,33.38,35.21
"2018-04-30 17:10:00",338564,0.749,276.3,12.59,37.88,91.57167,0,867.1728,0,-3.224,3.142,181,11.2,9.28,13.77119,0.15,50.28,57.97,33.37,35.21
"2018-04-30 17:20:00",338565,1.115,185.9,12.35,38.97,58.30182,0,867.1559,0,-3.325,3.143,194,11.2,9.29,8.568151,0.147,50.33,57.97,33.38,35.21
"2018-04-30 17:30:00",338566,0.715,161.6,12.21,38.55,36.25293,0,867.1412,0,-3.253,3.143,176,11.19,9.29,5.343253,0.147,50.28,57.97,33.37,35.21
"2018-04-30 17:40:00",338567,0.665,172.6,12.2,38.88,17.7806,0,866.9474,0,-3.229,3.143,180,11.19,9.29,2.709522,0.152,50.33,57.91,33.38,35.2
"2018-04-30 17:50:00",338568,0.617,188.9,12.27,38.31,13.59878,0,866.9011,0,-3.248,3.142,177,11.14,9.29,2.250987,0.166,50.33,57.91,33.38,35.2
"2018-04-30 18:00:00",338569,0.519,59.48,12.46,36.78,8.159268,0,866.9221,0,-3.243,3.141,180,11.09,9.29,1.440026,0.178,50.33,57.91,33.38,35.2
"2018-04-30 18:10:00",338570,0.38,298.8,12.77,32.94,5.250859,0,867.1264,0,-3.438,3.141,186,11.08,9.33,1.064861,0.201,50.28,57.91,33.37,35.2
"2018-04-30 18:20:00",338571,0.295,302.6,12.17,40.45,3.525464,0,867.1539,0,-3.49,3.147,171,11.08,9.35,0.2008457,0.04,50.28,57.91,33.37,35.2
"2018-04-30 18:30:00",338572,0,0,11.71,43.69,3.733769,0,867.1539,0,-3.397,3.148,171,11.1,9.34,0.2614783,0.048,50.28,57.91,33.37,35.2
"2018-04-30 18:40:00",338573,0,0,11.48,44.78,1.94549,0,867.2844,0,-3.503,3.15,176,11.1,9.34,0.2690574,0.052,50.22,57.91,33.35,35.2
"2018-04-30 18:50:00",338574,0,0,11.09,51.14,0,0,867.4066,0,-3.462,3.152,187,11.05,9.36,0,0,50.28,57.91,33.37,35.2
"2018-04-30 19:00:00",338575,0.057,204.1,10.88,48.77,0,0,867.4824,0,-3.385,3.151,171,11.06,9.4,0,0,50.28,57.86,33.37,35.18
"2018-04-30 19:10:00",338576,0.066,153.9,10.73,52.33,0,0,867.6172,0,-3.371,3.154,171,11.02,9.38,0,0,50.28,57.86,33.37,35.18
"2018-04-30 19:20:00",338577,0.123,174.8,10.51,51.28,0,0,867.6552,0,-3.418,3.152,170,11.03,9.38,0.08337222,0,50.28,57.86,33.37,35.18
"2018-04-30 19:30:00",338578,0.061,227.2,10.9,46.31,0,0,867.8362,0,-3.366,3.151,172,11.05,9.39,0.2955956,0,50.28,57.86,33.37,35.18
"2018-04-30 19:40:00",338579,0.094,282.4,10.86,45.97,0,0,868.108,0,-3.37,3.152,172,11.08,9.45,0.1440091,0,50.28,57.86,33.37,35.18
"2018-04-30 19:50:00",338580,0.047,213.7,10.8,46.21,0,0,868.3607,0,-3.318,3.152,190,10.96,9.46,0.01894817,0,50.22,57.86,33.35,35.18
"2018-04-30 20:00:00",338581,0.123,210.1,10.34,52.75,0,0,868.5271,0,-3.134,3.153,190,10.95,9.47,0,0,50.22,57.86,33.35,35.18
"2018-04-30 20:10:00",338582,0.026,189.1,10.25,51.36,0,0,868.6619,0,-3.333,3.154,181,10.97,9.48,0,0,50.28,57.86,33.37,35.18
"2018-04-30 20:20:00",338583,0.006,179,10.3,50.43,0,0,868.6808,0,-3.29,3.154,190,10.92,9.49,0,0,50.22,57.86,33.35,35.18
"2018-04-30 20:30:00",338584,0.06,179,9.84,55.23,0,0,868.902,0,-2.772,3.153,195,10.88,9.49,0,0,50.28,57.86,33.37,35.18
"2018-04-30 20:40:00",338585,0.077,178.7,9.47,57.68,0,0,869.1906,0,-3.117,3.158,195,10.92,9.5,0,0,50.28,57.86,33.37,35.18
"2018-04-30 20:50:00",338586,0.065,142.2,9.14,59.25,0,0,868.9841,0,-3.066,3.156,181,10.9,9.52,0.01137104,0,50.28,57.86,33.37,35.18
"2018-04-30 21:00:00",338587,0.2,154.9,9.88,53.95,0,0,868.7503,0,-3.076,3.158,187,10.85,9.52,0.708806,0,50.22,57.8,33.35,35.17
"2018-04-30 21:10:00",338588,0.435,168.6,9.4,57.19,0,0,868.6619,0,-2.811,3.151,186,10.86,9.55,0.379052,0,50.28,57.86,33.37,35.18
"2018-04-30 21:20:00",338589,0.409,180.9,10.1,55.56,0,0,868.6703,0,-3.123,3.154,195,10.84,9.6,0.6785161,0,50.22,57.8,33.35,35.17
"2018-04-30 21:30:00",338590,0.574,155.9,9.65,56.66,0,0,868.6703,0,-2.979,3.154,190,10.8,9.59,0.08339669,0,50.22,57.8,33.35,35.17
"2018-04-30 21:40:00",338591,0.314,171.2,9.9,56.22,0,0,868.6682,0,-3.39,3.159,186,10.78,9.6,0.2350302,0,50.22,57.8,33.35,35.17
"2018-04-30 21:50:00",338592,0.321,178.3,10.04,55.49,0,0,868.6703,0,-2.661,3.147,194,10.83,9.63,0.3828737,0,50.28,57.8,33.37,35.17
"2018-04-30 22:00:00",338593,0.274,159.1,10.52,53.45,0,0,868.6703,0,-3.785,3.159,178,10.74,9.64,0.614115,0,50.22,57.86,33.35,35.18
"2018-04-30 22:10:00",338594,0.635,166.5,10.05,55.29,0,0,868.6682,0,-3.511,3.158,190,10.72,9.67,0.09856174,0,50.22,57.8,33.35,35.17
"2018-04-30 22:20:00",338595,0.549,206.3,10.01,54.89,0,0,868.6366,0,-3.301,3.154,185,10.68,9.67,0.1213068,0,50.22,57.86,33.35,35.18
"2018-04-30 22:30:00",338596,0.364,179.4,10.04,54.43,0,0,868.6261,0,-3.136,3.156,193,10.62,9.67,0.05686254,0,50.22,57.86,33.35,35.18
"2018-04-30 22:40:00",338597,0.418,194.8,9.92,54.12,0,0,868.6366,0,-3.073,3.152,189,10.65,9.68,0.09477091,0,50.28,57.86,33.37,35.18
"2018-04-30 22:50:00",338598,0.538,179.9,10.23,52.38,0,0,868.6703,0,-2.994,3.151,184,10.6,9.68,0.2426135,0,50.22,57.8,33.35,35.17
"2018-04-30 23:00:00",338599,0.483,177.2,10.42,50.77,0,0,868.6703,0,-2.367,3.147,178,10.55,9.68,0.416992,0,50.22,57.86,33.35,35.18
"2018-04-30 23:10:00",338600,0.707,164.6,10.46,49.67,0,0,868.5271,0,-2.654,3.145,173,10.49,9.68,0.2047052,0,50.22,57.8,33.35,35.17
"2018-04-30 23:20:00",338601,0.539,174.2,10.6,48.54,0,0,868.4176,0,-2.71,3.147,175,10.51,9.68,0.09856175,0,50.22,57.8,33.35,35.17
"2018-04-30 23:30:00",338602,0.682,175.4,10.27,49.46,0,0,868.4176,0,-3.03,3.154,179,10.43,9.68,0.02274502,0,50.22,57.8,33.35,35.17
"2018-04-30 23:40:00",338603,0.654,193.4,10.33,48.43,0,0,868.4217,0,-2.759,3.147,193,10.42,9.68,0.08718923,0,50.28,57.8,33.37,35.17
"2018-04-30 23:50:00",338604,0.398,188.8,10.3,49.04,0,0,868.425,0,-3.613,3.159,176,10.39,9.68,0,0,50.22,57.8,33.35,35.17
